Location: Allos
(44.2333°N, 6.6333°E)
Time: 08:33:35
(UTC+00:00)

Cosmos 1680 Rocket - Pass Details

Date: 01 December 2020
Orbit: 760 x 781 km, 74.1° (Epoch: 26 January)

Event Time Altitude Azimuth Distance (km) Brightness Sun altitude
Rises 17:41:20 0° 181° (S) 3,227 6.9 -18.3°
Reaches altitude 10° 17:43:46 10° 175° (S) 2,309 6.1 -18.8°
Maximum altitude 17:48:45 46° 104° (ESE) 1,042 3.8 -19.6°
Enters shadow 17:49:55 39° 69° (ENE) 1,151 3.9 -19.8°
